Location: Newark
(12.4436°N, 0.6167°W)
Time: 23:35:23
(UTC+00:00)

Vanguard 2 - Pass Details

Date: 11 December 2019
Orbit: 553 x 2938 km, 32.9° (Epoch: 22 January)

Event Time Altitude Azimuth Distance (km) Brightness Sun altitude
Rises 01:42:21 0° 271° (W) 5,623 - -62.5°
Reaches altitude 10° 01:46:01 10° 278° (W) 4,905 - -61.7°
Maximum altitude 02:00:05 42° 345° (NNW) 3,621 - -58.6°
Exits shadow 02:08:33 29° 32° (NNE) 4,364 11.2 -56.7°
Drops below altitude 10° 02:16:38 10° 52° (NE) 5,674 12.1 -54.9°
Sets 02:21:19 0° 59° (ENE) 6,542 12.6 -53.8°
